Probability
0 0 0 0 0 0 0 0 0 0 0 0 0 0 0 0 0 0 0 0 0 0 0 0 0 0 0 0 0 0 0 0 0 0 0 0 0 0
0 0 0 0 0 0 0 0 0 0 0 0 0 0 0 0 0 0 0 0 0 0 0 0 0 0 0 0 0 0 0 0 0 0 0 0 0 0
0 0 0 0 0 0 0 0 0 0 0 0 0 0 0 0 0 0 0 0 0 0 0 0 0 0 0 0 0 0 0 0 0 0 0 0 0 0
0 0 0 0 0 0 0 0 0 0 0 0 0 0 0 0 0 0 0 0 0 0 0 0 0 0 0 0 0 0 0 0 0 0 0 0 0 0
0 0 0 0 0 0 0 0 0 0 0 0 0 0 0 0 0 0 0 0 0 0 0 0 0 0 0 0 0 0 0 0 0 0 0 0 0 0
0 0 0 0 0 0 0 0 0 0 0 0 0 0 0 0 0 0 0 0 0 0 0 0 0 0 0 0 0 0 0 0 0 0 0 0 0 0
0 0 0 0 0 0 0 0 0 0 0 0 0 0 0 0 0 0 0 0 0 0 0 0 0 0 0 0 0 0 0 0 0 0 0 0 0 0
0 0 0 0 0 0 0 0 0 0 0 0 0 0 0 0 0 0 0 0 0 0 0 0 0 0 0 0 0 0 0 0 0 0 0 0 0 0
0 0 0 0 0 0 0 0 0 0 0 0 0 0 0 0 0 0 0 0 0 0 0 0 0 0 0 0 0 0 0 0 0 0 0 0 0 0
0 0 0 0 0 0 0 0 0 0 0 0 0 0 0 0 0 0 0 0 0 0 0 0 0 0 0 0 0 0 0 0 0 0 0 0 0 0
0 0 0 0 0 0 0 0 0 0 0 0 0 0 0 0 0 0 0 0 0 0 0 0 0 0 0 0 0 0 0 0 0 0 0 0 0 0
0 0 0 0 0 0 0 0 0 0 0 0 0 0 0 0 0 0 0 0 0 0 0 0 0 0 0 0 0 0 0 0 0 0 0 0 0 0
0 0 0 0 0 0 0 0 0 0 0 0 0 0 0 0 0 0 0 0 0 0 0 0 0 0 0 0 0 0 0 0 0 0 0 0 0 0
0 0 0 0 0 0 0 0 0 0 0 0 0 0 0 0 0 0 0 0 0 0 0 0 0 0 0 0 0 0 0 0 0 0 0 0 0 0
0 0 0 0 0 0 0 0 0 0 0 0 0 0 0 0 0 0 0 0 0 0 0 0 0 0 0 0 0 0 0 0 0 0 0 0 0 0
0 0 0 0 0 0 0 0 0 0 0 0 0 0 0 0 0 0 0 0 0 0 0 0 0 0 0 0 0 0 0 0 0 0 0 0 0 0
0 0 0 0 0 0 0 0 0 0 0 0 0 0 0 0 0 0 0 0 0 0 0 0 0 0 0 0 0 0 0 0 0 0 0 0 0 0
0 0 0 0 0 0 0 0 0 0 0 0 0 0 0 0 0 0 0 0 0 0 0 0 0 0 0 0 0 0 0 0 0 0 0 0 0 0
0 0 0 0 0 0 0 0 0 0 0 0 0 0 0 0 0 0 0 0 0 0 0 0 0 0 0 0 0 0 0 0 0 0 0 0 0 0
0 0 0 0 0 0 0 0 0 0 0 0 0 0 0 0 0 0 0 0 0 0 0 0 0 0 0 0 0 0 0 0 0 0 0 0 0 0
0 0 0 0 0 0 0 0 0 0 0 0 0 0 0 0 0 0 0 0 0 0 0 0 0 0 0 0 0 0 0 0 0 0 0 0 0 0
0 0 0 0 0 0 0 0 0 0 0 0 0 0 0 0 0 0 0 0 0 0 0 0 0 0 0 0 0 0 0 0 0 0 0 0 0 0
0 0 0 0 0 0 0 0 0 0 0 0 0 0 0 0 0 0 0 0 0 0 0 0 0 0 0 0 0 0 0 0 0 0 0 0 0 0
Height
5680 5673 5667 5660 5653 5646 5639 5632 5627 5623 5621 5614 5608 5602 5597 5593 5590 5588 5587 5587 5586 5587 5588 5590 5592 5595 5598 5602 5606 5611 5616 5622 5628 5634 5640 5646 5653 5660
5665 5658 5651 5643 5636 5629 5621 5614 5607 5602 5600 5595 5589 5583 5577 5573 5570 5568 5567 5566 5566 5566 5566 5568 5570 5573 5576 5580 5585 5590 5596 5602 5608 5615 5622 5629 5637 5644
5649 5642 5635 5627 5620 5612 5604 5597 5589 5582 5577 5575 5569 5564 5559 5555 5552 5550 5548 5548 5547 5547 5547 5548 5550 5553 5556 5559 5564 5569 5575 5581 5588 5596 5604 5612 5620 5628
5634 5627 5619 5611 5604 5595 5587 5579 5571 5564 5558 5556 5552 5547 5543 5539 5537 5535 5533 5532 5531 5531 5531 5531 5533 5535 5538 5541 5545 5550 5555 5562 5569 5577 5585 5594 5603 5611
5619 5611 5603 5595 5587 5578 5570 5562 5555 5549 5543 5539 5536 5532 5529 5526 5524 5522 5520 5519 5518 5517 5517 5517 5519 5520 5523 5526 5529 5534 5539 5545 5552 5560 5567 5576 5586 5596
5604 5596 5588 5579 5571 5562 5555 5547 5541 5535 5530 5526 5523 5520 5517 5515 5513 5511 5510 5508 5507 5506 5506 5506 5507 5509 5511 5514 5517 5521 5525 5530 5537 5544 5552 5561 5571 5581
5590 5581 5572 5564 5555 5548 5541 5535 5529 5524 5519 5516 5513 5510 5508 5506 5504 5502 5501 5500 5499 5498 5498 5498 5499 5500 5502 5504 5507 5510 5514 5519 5525 5532 5540 5549 5558 5568
5576 5567 5559 5551 5543 5536 5530 5524 5519 5514 5511 5508 5505 5503 5502 5500 5498 5496 5495 5494 5494 5493 5491 5492 5492 5493 5495 5497 5499 5503 5507 5511 5517 5523 5531 5539 5548 5558
5562 5555 5547 5540 5533 5527 5521 5516 5511 5508 5505 5503 5501 5499 5497 5496 5494 5493 5491 5490 5489 5488 5487 5488 5488 5489 5490 5492 5494 5498 5501 5506 5511 5517 5524 5532 5541 5550
5551 5545 5539 5532 5525 5520 5515 5510 5507 5504 5502 5500 5498 5497 5495 5493 5492 5490 5489 5488 5487 5486 5485 5486 5486 5487 5488 5489 5491 5494 5498 5502 5507 5512 5519 5527 5536 5545
5542 5537 5531 5526 5520 5515 5511 5507 5505 5503 5501 5499 5498 5496 5494 5493 5491 5489 5488 5487 5486 5485 5484 5484 5484 5485 5485 5487 5489 5491 5494 5498 5503 5508 5515 5523 5531 5540
5536 5531 5526 5521 5517 5513 5510 5507 5505 5503 5501 5500 5498 5497 5495 5493 5491 5489 5488 5486 5484 5483 5482 5482 5481 5482 5483 5484 5485 5487 5490 5494 5499 5504 5511 5518 5526 5535
5531 5527 5523 5519 5516 5513 5510 5508 5506 5504 5503 5501 5500 5498 5496 5494 5492 5490 5488 5485 5483 5482 5481 5480 5479 5479 5479 5480 5482 5484 5486 5490 5494 5500 5506 5513 5521 5531
5528 5525 5522 5519 5517 5514 5512 5510 5508 5506 5505 5503 5502 5500 5497 5495 5493 5490 5488 5485 5483 5481 5480 5478 5478 5477 5477 5477 5479 5480 5482 5485 5490 5495 5501 5508 5516 5525
5526 5524 5522 5520 5518 5516 5514 5512 5510 5509 5507 5506 5504 5501 5499 5497 5494 5492 5489 5487 5485 5482 5481 5479 5478 5477 5476 5476 5476 5477 5479 5482 5486 5491 5497 5504 5512 5521
5525 5524 5523 5521 5520 5518 5516 5515 5513 5512 5510 5508 5506 5504 5502 5499 5497 5495 5492 5490 5487 5485 5483 5481 5480 5478 5477 5477 5476 5476 5478 5480 5484 5489 5495 5502 5510 5518
5526 5525 5524 5523 5522 5520 5519 5517 5516 5514 5513 5511 5509 5507 5505 5503 5500 5498 5496 5494 5492 5490 5488 5486 5483 5482 5481 5480 5479 5479 5480 5482 5485 5489 5495 5502 5509 5517
5527 5527 5526 5525 5524 5523 5521 5520 5519 5517 5516 5514 5513 5511 5509 5507 5505 5503 5501 5499 5497 5495 5493 5491 5489 5488 5487 5486 5485 5484 5485 5486 5489 5493 5498 5505 5512 5519
5529 5528 5528 5528 5527 5525 5524 5523 5522 5521 5519 5518 5517 5516 5514 5512 5510 5508 5506 5504 5502 5501 5500 5498 5496 5495 5495 5494 5492 5491 5492 5494 5496 5500 5504 5510 5517 5523
5531 5531 5531 5530 5529 5528 5527 5526 5525 5524 5524 5523 5522 5521 5519 5518 5516 5514 5512 5510 5509 5508 5506 5505 5503 5503 5503 5503 5501 5500 5500 5502 5505 5508 5512 5517 5523 5529
5533 5533 5533 5533 5532 5531 5530 5529 5529 5529 5528 5528 5527 5526 5525 5524 5523 5521 5519 5517 5516 5514 5513 5512 5511 5511 5511 5511 5511 5510 5509 5511 5514 5517 5521 5526 5531 5537
5536 5536 5536 5535 5535 5534 5533 5533 5533 5533 5533 5533 5532 5532 5531 5530 5529 5528 5526 5524 5523 5522 5521 5520 5519 5519 5519 5520 5520 5520 5520 5521 5523 5526 5530 5534 5539 5544
5539 5539 5539 5538 5538 5537 5537 5537 5537 5538 5538 5538 5538 5538 5537 5537 5536 5534 5533 5532 5531 5530 5529 5529 5528 5527 5527 5528 5529 5529 5530 5531 5533 5536 5539 5542 5546 5551
Wind_Speed
61 62 63 65 66 67 68 68 67 66 64 64 64 65 64 64 64 64 63 63 63 64 64 64 64 65 65 66 66 65 64 63 62 61 60 58 57 57
62 63 65 66 67 67 68 68 68 69 67 65 65 63 61 60 59 59 59 59 59 59 60 60 60 61 62 64 65 65 65 65 64 63 62 60 59 58
63 64 65 66 67 67 68 68 68 68 67 62 60 58 56 54 52 51 51 50 50 50 51 51 52 53 55 57 59 61 63 64 64 64 63 62 60 59
63 64 65 66 67 67 67 66 65 63 61 56 53 51 48 46 45 44 43 43 43 43 44 44 45 46 47 50 52 55 57 59 60 61 61 61 60 59
63 64 65 66 66 65 64 61 59 56 53 50 45 43 41 40 39 38 38 37 37 36 37 37 37 38 40 42 44 47 50 52 54 55 56 57 57 57
63 64 64 64 63 61 57 54 51 48 45 42 38 37 36 35 34 33 31 30 29 28 29 30 31 33 34 36 37 40 42 45 47 49 51 52 53 54
61 61 61 59 56 52 48 45 43 40 37 34 32 30 29 28 27 26 24 23 24 24 24 24 25 26 28 29 31 32 34 36 39 41 43 46 48 50
58 56 53 50 47 44 42 39 36 33 29 27 25 23 21 21 20 19 17 17 17 19 18 18 18 19 21 22 24 26 28 30 32 35 37 40 43 45
52 48 44 42 39 37 35 31 28 25 22 19 17 16 15 15 14 13 13 12 12 12 12 11 12 12 13 15 17 20 22 25 27 30 33 36 38 41
43 39 37 35 33 30 27 23 19 16 15 13 12 11 11 10 10 9 8 7 6 6 6 7 8 9 10 11 14 17 19 22 25 28 31 34 36 39
36 34 31 28 25 22 18 14 12 10 9 8 8 8 8 8 7 7 7 7 7 7 7 8 8 9 11 12 14 16 19 21 24 26 29 32 35 37
30 28 25 21 18 14 11 9 7 7 6 6 6 7 7 7 7 7 7 8 8 8 8 8 8 9 10 12 14 17 19 21 23 26 29 32 34 36
23 21 18 14 11 9 7 7 7 7 7 7 7 7 7 8 8 8 9 9 8 7 7 7 7 8 9 10 12 15 18 20 23 25 28 32 34 35
16 13 11 8 7 6 7 7 7 7 8 8 9 8 8 9 9 9 9 9 8 7 6 5 4 4 5 7 9 12 15 18 21 24 28 31 33 35
9 8 6 5 6 7 7 8 8 8 8 9 9 9 9 10 10 10 9 10 9 8 7 6 4 2 1 3 5 8 11 14 17 21 25 28 30 33
5 4 4 5 7 8 8 8 8 8 9 10 10 10 10 11 11 11 11 11 11 11 10 9 8 7 6 5 4 4 8 11 15 18 22 26 28 31
3 4 5 6 8 8 9 8 8 9 9 10 11 12 12 13 12 13 13 13 14 14 14 14 14 14 14 13 11 11 12 12 14 17 21 25 28 30
4 6 7 8 8 9 9 9 9 9 10 11 12 14 14 14 14 14 15 15 15 16 17 19 20 20 20 18 18 18 17 16 17 18 21 23 26 29
6 7 8 9 9 9 9 9 9 10 11 12 13 14 15 16 16 16 17 17 17 16 17 20 22 23 22 22 23 23 22 22 21 20 21 22 23 26
8 9 9 9 9 9 9 9 9 10 11 12 13 15 16 17 18 18 18 19 19 19 19 21 22 23 23 23 24 25 26 26 25 24 23 21 21 22
10 9 9 9 9 9 9 9 10 11 12 13 13 15 16 17 18 18 19 20 21 21 21 21 22 24 24 24 24 26 28 28 28 27 26 24 22 21
10 10 9 9 9 9 9 10 11 11 12 13 14 15 15 16 17 18 19 20 21 22 22 22 22 22 23 23 23 25 27 28 28 28 28 27 25 23
10 10 9 9 9 9 9 10 11 12 13 13 14 15 15 15 16 17 18 19 21 22 23 23 23 23 24 24 23 24 26 27 27 26 25 25 24 23
Wind_Direction
297 297 296 296 296 295 295 295 294 292 291 290 289 287 286 284 282 280 278 276 274 271 269 267 265 263 261 259 258 256 255 254 253 251 250 248 246 245
297 297 297 297 297 296 296 295 295 294 292 291 289 288 287 285 283 280 278 276 274 272 270 267 265 262 260 258 256 255 253 252 251 249 248 246 245 243
298 298 298 297 297 297 296 296 295 294 293 292 290 288 287 285 283 281 279 277 275 272 270 267 264 261 259 256 254 252 250 249 248 246 245 244 242 240
298 298 298 298 298 298 297 297 296 295 294 293 291 289 287 285 283 281 280 278 276 273 269 266 263 260 257 253 251 249 248 246 244 243 242 240 239 237
299 299 300 300 299 299 298 297 296 296 295 294 292 289 288 286 284 283 281 279 276 273 268 264 261 258 254 251 248 246 244 242 241 239 238 236 234 233
300 301 301 301 300 300 299 299 298 297 296 295 293 291 288 287 286 284 281 279 276 272 267 262 258 255 252 249 247 244 242 239 236 234 232 230 229 227
302 303 303 302 302 302 301 301 300 299 297 297 295 293 290 289 289 287 283 277 275 273 268 263 258 253 250 247 244 240 236 233 230 228 226 224 223 221
305 305 305 304 304 304 304 303 302 300 299 299 298 296 294 293 292 290 286 280 274 271 268 262 257 251 246 240 236 233 230 227 224 221 219 217 216 215
307 307 307 307 307 307 307 305 303 302 302 302 302 301 300 300 299 296 292 287 278 272 269 260 252 243 237 232 228 225 223 220 217 214 212 210 208 207
309 310 311 311 311 312 311 310 308 307 308 308 309 310 312 312 310 309 307 300 293 283 273 259 251 242 237 232 226 221 219 217 214 210 208 206 205 204
311 313 315 316 317 318 319 320 322 323 324 326 329 332 333 334 332 327 321 315 306 299 290 276 266 257 249 241 233 226 221 217 214 210 207 205 204 203
313 316 319 322 325 330 336 343 351 358 3 5 3 1 355 351 345 340 334 327 320 310 300 289 274 261 254 245 237 230 224 218 214 212 209 206 205 205
315 318 323 329 336 349 4 16 26 33 30 22 15 9 5 359 352 347 344 339 331 322 312 298 282 269 257 247 239 232 225 220 217 214 211 208 206 205
319 325 332 344 3 23 34 40 42 39 32 28 23 19 14 8 5 3 360 357 355 350 342 329 311 284 259 245 241 233 225 219 216 212 210 208 206 205
329 337 353 19 35 42 49 48 46 41 36 30 26 25 23 21 21 19 15 17 25 25 24 24 25 18 275 238 241 224 216 211 207 204 202 201 201 202
352 15 42 52 53 54 53 51 48 42 37 37 37 36 34 35 37 38 35 38 42 43 49 53 57 66 77 92 121 158 179 184 186 190 192 193 192 192
35 60 67 65 61 57 53 52 49 47 47 46 45 47 48 49 50 49 49 52 56 59 62 65 69 76 79 82 91 107 125 142 157 169 178 182 183 184
82 87 80 74 66 60 56 54 54 56 56 57 58 57 56 56 58 57 56 59 65 70 72 75 77 78 79 83 89 95 104 118 133 146 157 166 174 177
101 95 86 76 68 62 59 59 63 65 69 68 66 65 63 62 62 61 62 64 70 75 77 79 81 80 80 84 90 94 98 106 115 127 138 148 161 170
105 98 87 76 68 63 64 68 73 77 78 76 75 73 70 68 66 64 65 69 73 78 81 82 84 85 83 83 88 92 97 101 106 112 121 131 145 157
105 97 87 76 67 67 73 78 83 87 86 84 82 79 76 71 66 65 67 71 75 78 81 84 87 88 89 88 89 94 97 101 104 109 112 116 125 136
102 94 84 74 70 75 82 88 91 94 94 91 88 86 81 76 70 68 69 72 76 78 78 81 85 89 90 91 92 95 99 101 104 108 112 116 120 127
99 91 82 75 77 84 92 98 100 101 99 96 93 90 86 82 79 76 74 75 77 78 79 80 83 86 89 91 93 96 99 102 104 108 112 117 122 128